Погода в Витебске

Поиск расширенной информации на нашем сайте:

Полезная информация:

Новости сайта



02.01.2020
Опубликован Долгосрочный прогноз погоды по городам России и ближнего зарубежья на январь 2020 года.
Карты: Прогноз на январь и февраль 2020 года, Сравнение прогнозируемой аномалии приземной температуры воздуха на январь 2020 года по разным моделям.




Погода в Витебске - сегодня

Время (UTC), дата Ветер
(°,м/с) 
Видим.   Явления Облачность Т
(°С)
Тd
(°С)
f(%) Тe
(°С)
Pmin
(гПа)
dP
(гПа)
Po
(мм)
O2
(г/м3)
Тmin Tmax R s Состояние
почвы
09 04.06.20 160 (Ю) 20000 м    10/10 420 м 
[St]
+14.1 +10.7 80 +17  1002.6  -0.3  737  280           
12 04.06.20 160 (Ю) 30000 м    9/6 800 м средняя 
[Cu med, cong|Ac As]
+16.2 +9.8 66 +18  1001.5  -0.9  736  278           
15 04.06.20 тихо ()   29000 м  в посл. час ливневой дождь{гроза}  9/6 960 м средняя, верхняя 
[Cu med, cong|Ac trans|Ci ing]
+15.5 +9.4 67 +16  1001.6  736  279         
18 04.06.20 160 (Ю) 25000 м  {гроза, ливн. осадки}  8/3 1000 м средняя, верхняя 
[Sc diur, vesp|Ac trans|Ci fib]
+13.2 +10.9 86 +17  1001.8  736  281    +17.3     
21 04.06.20 170 (Ю) 30000 м    3/0 средняя 
[Ac lent]
+11.9 +8.9 82 +12  1002.4  0.5  736  283           
00 05.06.20 170 (Ю) 30000 м    3/0 средняя, верхняя 
[Ac trans|Ci fib]
+10 +8.3 89 +10  1002.8  0.3  736  285           
03 05.06.20 170 (Ю) 35000 м    3/0 верхняя 
[Ci fib]
+9.3 +7.7 90 +9  1003.4  0.5  737  286           
06 05.06.20 190 (Ю) 21000 м    1/0 средняя 
[Ac trans]
+14.4 +8.8 69 +15  1003.9  0.9  737  281  +8.7         
09 05.06.20 070 (В) 19000 м    8/8 1200 м 
[Cu med, cong]
+17.5 +8.9 57 +19  1004.4  0.7  738  278           
12 05.06.20 180 (Ю) 35000 м    8/8 1260 м 
[Cu med, cong]
+19.3 +8 48 +20  1004.8  0.6  738  277           
15 05.06.20 140 (ЮВ) 28000 м    4/4 1000 м 
[Cu med, cong]
+20.4 +7.4 43 +20  1005.1  0.3  739  276           
18 05.06.20 тихо ()   26000 м    3/0 верхняя 
[Ci fib]
+17.5 +8.1 54 +18  1005.5  0.2  739  278    +20.5       
21 05.06.20 160 (Ю) 24000 м    3/0 верхняя 
[Ci fib]
+14.7 +8.4 66 +16  1005.7  739  281           
00 06.06.20 180 (Ю) 23000 м    6/0 средняя 
[Ac trans]
+14 +10.6 80 +16  1005.8  739  281           
03 06.06.20 170 (Ю) 27000 м  {ливн. осадки}  9/8 1020 м средняя 
[Sc|Ac trans]
+14.9 +13.9 94 +22  1004.8  -0.9  738  279         
06 06.06.20 170 (Ю) 4{10}  7000 м  слаб. ливневой дождь  9/5 600 м кучево-дожд., средняя 
[Cb cap|Ac As]
+17.2 +15.4 89 +27  1005.4  0.8  739  277  +13.8       
09 06.06.20 180 (Ю) 15000 м  в посл. час ливневой дождь  9/6 1470 м средняя 
[Sc|Ac As]
+17.4 +15.9 91 +29  1006.5  1.1  740  277      0.7     
12 06.06.20 180 (Ю) 2{10}  29000 м  слаб. ливневой дождь  9/8 800 м кучево-дожд., средняя 
[Cb cap|Ac trans]
+20.7 +17.1 80 +34  1006.1  -0.2  739  273      0.0     
15 06.06.20 180 (Ю) 26000 м  {ливн. осадки}  8/5 1000 м средняя 
[Cu med, cong|Ac trans]
+23.3 +16.8 67 +36  1006.6  0.7  740  271      0.8     
18 06.06.20 230 (ЮЗ) 21000 м  {ливн. осадки}  4/3 1000 м верхняя 
[Sc diur, vesp|Ci fib]
+21.9 +11.9 53 +26  1008.8  2.1  742  274    +24.1  0.8     
21 06.06.20 тихо ()   21000 м    ясно 
+16.5 +11.2 71 +19  1011.7  2.4  743  280           
00 07.06.20 тихо ()   17000 м    5/0 верхняя 
[Ci fib]
+11.4 +10.5 94 +13  1013.5  1.4  744  286           
03 07.06.20 тихо ()   17000 м    6/0 верхняя 
[Ci fib]
+14.9 +11.9 82 +19  1014.3  745  282           
06 07.06.20 140 (ЮВ) 15000 м    3/0 верхняя 
[Ci fib]
+22.1 +12.1 53 +26  1015  1.3  746  276  +10.3         
09 07.06.20 120 (ЮВ) 35000 м    4/0 верхняя 
[Cs]
+24.8 +12.7 47 +30  1015.1  0.3  746  273           
Время (UTC), дата Ветер
(°,м/с) 
Видим.   Явления Облачность Т
(°С)
Тd
(°С)
f(%) Тe
(°С)
Pmin
(гПа)
dP
(гПа)
Po
(мм)
O2
(г/м3)
Тmin Tmax R s Состояние
почвы

Для получения пояснительной информации подведите курсор к названию столбца.

ПОГОДА в Витебске - архив

Всё, что Вы хотите узнать о погоде в Витебске - удобно и подробно!

Выберите нужную дату (начиная с 1 января 2019* года) и нажмите кнопку "Найти".
Будут отображены архивные сводки погоды по пункту Витебск, начиная с указанной даты.


Отображать данные в формате CSV (для использования в таблицах Excel)


Внимание! Наш архив погоды предназначен исключительно для личного некоммерческого использования в познавательных целях. Если Вам необходимы официальные справки о состоянии погоды (для производственных, юридических, коммерческих и т.п. целей), обращайтесь в органы Росгидромета.

*Примечание: данная дата относится к архиву по метеостанциям СССР (Россия, СНГ, Балтия).
Архив по метеостанциям Зарубежной Европы и Азии (кроме Китая) хранится 10 дней, по другим регионам земного шара (Китай, Африка, Америка, Австралия, Океания) - 1 день.

Витебск - район местоположения метеостанции


Название, широта, долгота, высота метеостанции:
Витебск (город) 55.1°ш. 30.3°д. 170 м над ур. моря [Беларусь]

Дополнительная информация

В oтличие oт бoльшинства пoгoдных сайтoв мы публикуем пoдрoбную метеoинфoрмацию в детальнoм прoфессиoнальнoм фoрмате.

Характеристики температуры и влажнoсти вoздуха измеряются на высoте 2 м в тени вдали oт зданий и деревьев.
Скoрoсть ветра измеряется на высoте 10 м (на урoвне рoста челoвека скoрoсть ветра ниже в 1.5-2 раза). Если метеoстанция нахoдится в гoрoде или в лесу, тo скoрoсть ветра занижена на 2-4 м/с пo сравнению с oткрытым местoм. Скoрoсть ветра над акватoриями крупных рек и oзёр, а также на вершинах хoлмoв на 2-5 м/с выше, чем в oбычных услoвиях.
Атмoсфернoе давление в разных тoчках местнoсти мoжет значительнo oтличаться oт давления на метеoстанции, в зависимoсти oт услoвий рельефа (при пoдъёме на 10 м давление пoнижается примернo на 1 мм рт.ст.).